Погода в Сканторпе

Великобритания     53°34′37″N   0°38′53″E
темп.,
°C
ветер,
м/с
пор.,
м/с
влажн.,
%
обл.,
%
осадки,
мм/ч
давл.,
гПа
погр.,
м
7 марта, вс
вс700:000юз227723 0.0 103125
03:000з23770 0.0 102928
06:00−1з23800 0.0 102827
09:00+3зсз35700 0.0 1028338
12:00+7сз33560 0.0 1026788
15:00+8сз22550 0.0 1025927
18:00+4юз12740 0.0 102422
21:00+3з238543 0.0 102529
8 марта, пн
пн800:00+2зюз228739 0.0 102429
03:00+2з2383100 0.0 102347
06:00+3з2480100 0.0 102387
09:00+4зюз3784100 0.3 1022352
12:00+9з5873100 0.4 1022694
15:00+9з6872100 0.0 1020983
18:00+6з478780 0.0 1020200
21:00+4з359132 0.0 1021100
9 марта, вт
вт900:00+3зюз239016 0.0 102035
03:00+2юз23900 0.0 101936
06:00+1юз338920 0.0 101952
09:00+5ююз357739 0.0 1018195
12:00+10ююз577469 0.0 1017578
15:00+11юз71072100 0.1 10141189
18:00+8ююз61381100 0.2 1012816
21:00+8ююз81583100 0.0 10101074
10 марта, ср
ср1000:00+7ююз111888100 1.7 1007999
03:00+8ююз111889100 1.6 1002977
06:00+9ююз91690100 2.9 1001774
09:00+10ююз61191100 0.3 1001592
12:00+10ююз61393100 2.1 998682
15:00+12ююз81589100 0.4 993859
18:00+12ююз112088100 3.7 9891143
21:00+12юз122281100 0.3 9861605
11 марта, чт
чт1100:00+9юз132573100 0.7 9831982
03:00+9юз142472100 0.1 9801597
06:00+6зюз9197796 1.0 9881480
09:00+8зюз10196766 0.1 9911921
12:00+7з10176982 0.7 9931656
15:00+9зюз11185699 0.5 9932251
18:00+6зюз7166383 0.8 9941243
21:00+6з7176866 0.2 9971495